Regional Weather Roundup
Issued by NWS

Home | Current Version | Previous Version | Graphics & Text | Print | Product List | Glossary On
Versions: 1 2 3 4 5 6 7 8 9 10 11 12 13 14 15 16 17 18 19 20 21 22 23 24 25 26 27 28 29 30 31 32 33 34 35 36 37 38 39 40 41 42 43 44 45 46 47 48 49 50
000
ASUS45 KABQ 281810
RWRNM
NEW MEXICO REGIONAL WEATHER ROUNDUP
NATIONAL WEATHER SERVICE ALBUQUERQUE NM
1200 PM MDT THU APR 28 2016

NOTE: "FAIR" MEANS FEW OR NO CLOUDS BELOW 12,000 FEET AGL WITH NO
       SIGNIFICANT WEATHER OR OBSTRUCTIONS TO VISION.

      THIS PRODUCT IS RELEASED AS TWO VERSIONS.  ONE VERSION NEAR
      THE TOP OF THE HOUR CONTAINING PRELIMINARY DATA FROM ALBUQUERQUE
      AND OTHER STATIONS.  A FINAL VERSION WITH ADDITIONAL DATA IS
      ISSUED ABOUT 10 MINUTES AFTER THE HOUR.

NMZ501-503-504-510>518-281900-
NORTHWEST PLATEAU/NORTHCENTRAL MOUNTAINS

CITY           SKY/WX    TMP DP  RH WIND       PRES   REMARKS
FARMINGTON     FAIR      61  19  19 SW16G24   29.74F
6HR MIN TEMP:  47; 6HR MAX TEMP:  61;

LOS ALAMOS     PTSUNNY   58  19  22 S16G29    29.84F
SANTA FE       FAIR      65  25  22 SE26G33   29.80F
6HR MIN TEMP:  44; 6HR MAX TEMP:  65;

TAOS           FAIR      59  21  23 SW15G23   29.83F
ANGEL FIRE     CLOUDY    48  23  38 SE13G25   29.90S

$$
NMZ402-403-502-505>509-281900-
WESTCENTRAL MOUNTAINS/SOUTHWEST MOUNTAINS

CITY           SKY/WX    TMP DP  RH WIND       PRES   REMARKS
GALLUP         FAIR      59  18  20 S20G31    29.76F
6HR MIN TEMP:  47; 6HR MAX TEMP:  59;

GRANTS         FAIR      63   3   9 SW17G43   29.79F
SILVER CITY      N/A     66  14  13 SW18G24   29.86S

$$
NMZ407-409-411-412-281900-
SOUTHERN DESERTS

CITY           SKY/WX    TMP DP  RH WIND       PRES   REMARKS
LORDSBURG      FAIR      70  14  11 W10G21    29.80F
DEMING         FAIR      72  19  13 W18G24    29.81F
6HR MIN TEMP:  44; 6HR MAX TEMP:  72;

LAS CRUCES     FAIR      73  15  11 SW20G25   29.83F
HOLLOMAN AFB   FAIR      76  11   8 S20G29    29.77F
ALAMOGORDO     FAIR      73  18  12 S14G29    29.81S
T OR C         FAIR      71  15  11 S21G33    29.77F
6HR MIN TEMP:  50; 6HR MAX TEMP:  71;


$$
NMZ519>523-281900-
CENTRAL VALLEYS/CENTRAL HIGHLANDS

CITY           SKY/WX    TMP DP  RH WIND       PRES   REMARKS
ALBUQUERQUE    FAIR      69  15  12 SW17G23   29.78F
6HR MIN TEMP:  57; 6HR MAX TEMP:  69;

DOUBLE EAGLE   MOSUNNY   66  18  15 S17G29    29.80F
MORIARTY ARPT  FAIR      67  13  12 S14G26    29.83F
6HR MIN TEMP:  44; 6HR MAX TEMP:  67;

CLINES CORNERS FAIR      62  21  20 SE14G23   29.86F
6HR MIN TEMP:  39; 6HR MAX TEMP:  62;

BELEN          FAIR      69  14  12 S16       29.77F
6HR MIN TEMP:  52; 6HR MAX TEMP:  70;

SOCORRO        FAIR      71  16  12 S14G30    29.77F
6HR MIN TEMP:  52; 6HR MAX TEMP:  72;


$$
NMZ524>526-539-540-281900-
SOUTHCENTRAL MOUNTAINS

CITY           SKY/WX    TMP DP  RH WIND       PRES   REMARKS
RUIDOSO          N/A     63  12  14 SW24G32   29.91S

$$
NMZ527>531-281900-
NORTHEAST HIGHLANDS/NORTHEAST PLAINS

CITY           SKY/WX    TMP DP  RH WIND       PRES   REMARKS
LAS VEGAS      FAIR      54  32  43 E12G21    29.90F
6HR MIN TEMP:  38; 6HR MAX TEMP:  56;

RATON          PTSUNNY   52  34  50 VRB3G16   29.89F
6HR MIN TEMP:  42; 6HR MAX TEMP:  54; 6HR PCP: TRACE;

CLAYTON        CLOUDY    47  35  63 NE13      29.97S
6HR MIN TEMP:  42; 6HR MAX TEMP:  47;


$$
NMZ532>537-281900-
EASTCENTRAL PLAINS

CITY           SKY/WX    TMP DP  RH WIND       PRES   REMARKS
TUCUMCARI      FAIR      68  42  38 NE17G26   29.83F
6HR MIN TEMP:  44; 6HR MAX TEMP:  69;

CANNON AFB     FAIR      72  34  24 N6        29.80F
6HR MIN TEMP:  44; 6HR MAX TEMP:  73;

CLOVIS AIRPORT FAIR      72  36  26 S8        29.82F

$$
NMZ028-029-538-281900-
SOUTHEAST PLAINS

CITY           SKY/WX    TMP DP  RH WIND       PRES   REMARKS
ROSWELL        FAIR      82  18   9 SW16G25   29.73F
6HR MIN TEMP:  48; 6HR MAX TEMP:  82;

ARTESIA        FAIR      81  19  10 SW14G26   29.76S
CARLSBAD       FAIR      83  16   8 S10G18    29.74F
6HR MIN TEMP:  46; 6HR MAX TEMP:  84;

HOBBS          SUNNY     79  28  15 VRB6      29.79F


$$




USA.gov is the U.S. government's official web portal to all federal, state and local government web resources and services.